Date String (YYYY-MM-DD hh:mm:ss) UTC,Instrument flags,Ambient pressure (hPa),Sample flow (lpm),Bypass flow (lpm),Sample temperature (°C),Ambient temperature (°C),ASC tube jacket temperature (°C),LED temperature (°C),Box temperature (°C),Sample RH (%),Span deviation,Mass concentration (μg/m³),Mass concentration (μg/m³),Mass concentration (μg/m³)
DateTimeUTC,F1_M11,P_M11,Q1_M11,Q2_M11,T1_M11,T2_M11,T3_M11,T4_M11,T5_M11,U1_M11,ZSPAN_M11,X0_M11,X2_M11,X1_M11
2022-07-17 03:00:00,,0829.3,5.00,0.00,29.3,27.4,00.0,38.1,31.1,32.9,0000.0,0010.27,0005.21,0004.59
2022-07-17 03:01:00,,0829.1,5.00,0.00,29.3,27.6,00.0,38.1,31.2,32.4,0000.0,0010.29,0005.20,0004.56
2022-07-17 03:02:00,,0828.9,5.01,0.00,29.3,27.8,00.0,38.1,31.2,32.6,0000.0,0010.27,0005.24,0004.56
2022-07-17 03:03:00,,0828.9,4.99,0.00,29.4,27.9,00.0,38.1,31.3,32.5,0000.0,0010.44,0005.30,0004.54
2022-07-17 03:04:00,,0828.9,5.01,0.00,29.4,28.1,00.0,38.1,31.4,32.7,0000.0,0010.05,0005.33,0004.54
2022-07-17 03:05:00,,0829.0,5.01,0.00,29.4,28.2,00.0,38.1,31.4,33.4,0000.0,0009.96,0005.38,0004.55
2022-07-17 03:06:00,,0829.0,4.99,0.00,29.5,28.4,00.0,38.2,31.5,33.8,0000.0,0010.32,0005.42,0004.57
2022-07-17 03:07:00,,0829.0,4.99,0.00,29.5,28.5,00.0,38.2,31.5,33.7,0000.0,0010.60,0005.49,0004.60
2022-07-17 03:08:00,,0829.0,5.00,0.00,29.6,28.3,00.0,38.2,31.6,33.0,0000.0,0010.64,0005.52,0004.62
2022-07-17 03:09:00,,0829.0,5.01,0.00,29.5,27.6,00.0,38.1,31.5,32.8,0000.0,0010.74,0005.56,0004.63
2022-07-17 03:10:00,,0829.0,5.01,0.00,29.5,27.1,00.0,38.1,31.3,33.0,0000.0,0010.56,0005.53,0004.63
2022-07-17 03:11:00,,0829.0,4.99,0.00,29.4,26.9,00.0,38.1,31.2,33.1,0000.0,0010.04,0005.47,0004.62
2022-07-17 03:12:00,,0829.0,5.00,0.00,29.4,27.0,00.0,38.1,31.1,33.2,0000.0,0009.84,0005.46,0004.63
2022-07-17 03:13:00,,0829.0,5.00,0.00,29.3,27.2,00.0,38.1,31.1,33.3,0000.0,0010.30,0005.43,0004.62
2022-07-17 03:14:00,,0829.0,4.99,0.00,29.3,27.3,00.0,38.1,31.1,33.4,0000.0,0011.21,0005.40,0004.62
2022-07-17 03:15:00,,0829.1,5.01,0.00,29.3,27.5,00.0,38.1,31.2,33.2,0000.0,0011.36,0005.43,0004.63
2022-07-17 03:16:00,,0829.1,4.99,0.00,29.3,27.7,00.0,38.1,31.2,33.4,0000.0,0011.31,0005.44,0004.63
2022-07-17 03:17:00,,0829.1,5.01,0.00,29.3,27.9,00.0,38.1,31.3,33.2,0000.0,0011.10,0005.44,0004.64
2022-07-17 03:18:00,,0829.1,4.99,0.00,29.4,28.1,00.0,38.1,31.3,32.9,0000.0,0011.18,0005.41,0004.64
2022-07-17 03:19:00,,0829.1,5.01,0.00,29.4,28.2,00.0,38.1,31.4,32.8,0000.0,0011.18,0005.40,0004.64
2022-07-17 03:20:00,,0829.1,5.00,0.00,29.4,28.3,00.0,38.1,31.4,32.6,0000.0,0011.09,0005.38,0004.64
2022-07-17 03:21:00,,0829.1,5.00,0.00,29.5,28.5,00.0,38.2,31.5,32.5,0000.0,0011.08,0005.39,0004.66
2022-07-17 03:22:00,,0829.1,5.00,0.00,29.5,28.5,00.0,38.2,31.5,32.4,0000.0,0011.75,0005.46,0004.67
2022-07-17 03:23:00,,0829.1,5.00,0.00,29.5,28.0,00.0,38.1,31.5,32.2,0000.0,0012.56,0005.49,0004.67
2022-07-17 03:24:00,,0829.0,5.01,0.00,29.5,27.2,00.0,38.1,31.4,32.1,0000.0,0012.37,0005.53,0004.68
2022-07-17 03:25:00,,0829.0,4.99,0.00,29.5,26.9,00.0,38.1,31.2,32.1,0000.0,0011.78,0005.55,0004.70
2022-07-17 03:26:00,,0829.1,5.00,0.00,29.4,26.9,00.0,38.1,31.1,32.3,0000.0,0011.66,0005.58,0004.71
2022-07-17 03:27:00,,0829.1,5.00,0.00,29.3,27.0,00.0,38.1,31.1,32.1,0000.0,0011.66,0005.57,0004.71
2022-07-17 03:28:00,,0829.0,5.00,0.00,29.3,27.2,00.0,38.1,31.1,32.2,0000.0,0011.58,0005.58,0004.71
2022-07-17 03:29:00,,0829.1,5.00,0.00,29.3,27.4,00.0,38.1,31.1,32.2,0000.0,0011.51,0005.64,0004.71
2022-07-17 03:30:00,,0829.0,4.99,0.00,29.3,27.6,00.0,38.1,31.2,32.2,0000.0,0011.57,0005.67,0004.71
2022-07-17 03:31:00,,0829.1,5.01,0.00,29.3,27.8,00.0,38.1,31.3,32.1,0000.0,0011.70,0005.69,0004.72
2022-07-17 03:32:00,,0829.1,5.00,0.00,29.4,28.0,00.0,38.1,31.3,32.1,0000.0,0011.67,0005.68,0004.71
2022-07-17 03:33:00,,0829.1,5.00,0.00,29.4,28.1,00.0,38.1,31.3,32.0,0000.0,0011.34,0005.69,0004.71
2022-07-17 03:34:00,,0829.2,5.00,0.00,29.4,28.3,00.0,38.1,31.4,32.0,0000.0,0011.28,0005.70,0004.72
2022-07-17 03:35:00,,0829.2,5.00,0.00,29.5,28.4,00.0,38.1,31.4,31.8,0000.0,0011.51,0005.67,0004.72
2022-07-17 03:36:00,,0829.2,5.00,0.00,29.5,28.5,00.0,38.2,31.5,31.7,0000.0,0011.19,0005.68,0004.71
2022-07-17 03:37:00,,0829.2,4.99,0.00,29.5,28.6,00.0,38.2,31.6,31.6,0000.0,0011.12,0005.65,0004.71
2022-07-17 03:38:00,,0829.2,5.00,0.00,29.6,28.3,00.0,38.2,31.6,31.5,0000.0,0011.15,0005.62,0004.70
2022-07-17 03:39:00,,0829.2,4.99,0.00,29.6,27.6,00.0,38.1,31.5,31.5,0000.0,0011.29,0005.62,0004.70
2022-07-17 03:40:00,,0829.2,5.01,0.00,29.5,27.1,00.0,38.1,31.4,31.4,0000.0,0011.16,0005.58,0004.69
2022-07-17 03:41:00,,0829.2,5.00,0.00,29.5,27.0,00.0,38.1,31.2,31.4,0000.0,0011.23,0005.59,0004.68
2022-07-17 03:42:00,,0829.2,4.99,0.00,29.4,27.0,00.0,38.1,31.1,31.6,0000.0,0011.30,0005.57,0004.68
2022-07-17 03:43:00,,0829.3,5.00,0.00,29.3,27.2,00.0,38.1,31.1,31.5,0000.0,0011.33,0005.57,0004.68
2022-07-17 03:44:00,,0829.3,5.00,0.00,29.3,27.4,00.0,38.1,31.2,31.7,0000.0,0011.34,0005.51,0004.67
2022-07-17 03:45:00,,0829.3,5.00,0.00,29.3,27.6,00.0,38.1,31.2,31.8,0000.0,0011.46,0005.55,0004.67
2022-07-17 03:46:00,,0829.3,5.01,0.00,29.3,27.8,00.0,38.1,31.2,31.8,0000.0,0011.30,0005.57,0004.67
2022-07-17 03:47:00,,0829.2,4.99,0.00,29.4,27.9,00.0,38.1,31.3,31.9,0000.0,0012.16,0005.53,0004.67
2022-07-17 03:48:00,,0829.2,5.01,0.00,29.4,28.1,00.0,38.1,31.4,31.9,0000.0,0012.24,0005.51,0004.68
2022-07-17 03:49:00,,0829.2,4.99,0.00,29.4,28.2,00.0,38.1,31.4,31.9,0000.0,0012.27,0005.57,0004.71
2022-07-17 03:50:00,,0829.3,5.00,0.00,29.5,28.4,00.0,38.2,31.5,31.6,0000.0,0012.24,0005.58,0004.72
2022-07-17 03:51:00,,0829.4,5.00,0.00,29.5,28.5,00.0,38.2,31.5,30.3,0000.0,0012.85,0005.60,0004.72
2022-07-17 03:52:00,,0829.2,5.00,0.00,29.5,28.6,00.0,38.2,31.6,29.7,0000.0,0012.75,0005.55,0004.71
2022-07-17 03:53:00,,0829.2,5.00,0.00,29.6,28.3,00.0,38.2,31.6,29.1,0000.0,0012.47,0005.49,0004.69
2022-07-17 03:54:00,,0829.3,5.01,0.00,29.6,27.5,00.0,38.1,31.5,28.8,0000.0,0012.20,0005.42,0004.66
2022-07-17 03:55:00,,0829.3,4.99,0.00,29.5,27.0,00.0,38.1,31.3,28.4,0000.0,0012.01,0005.39,0004.62
2022-07-17 03:56:00,,0829.4,5.00,0.00,29.5,26.9,00.0,38.1,31.2,27.9,0000.0,0011.32,0005.24,0004.57
2022-07-17 03:57:00,,0829.4,5.01,0.00,29.4,27.0,00.0,38.1,31.1,28.1,0000.0,0010.99,0005.13,0004.51
2022-07-17 03:58:00,,0829.3,5.00,0.00,29.3,27.2,00.0,38.1,31.1,28.5,0000.0,0010.23,0005.05,0004.46
2022-07-17 03:59:00,,0829.3,4.99,0.00,29.3,27.4,00.0,38.1,31.2,28.4,0000.0,0009.98,0004.98,0004.40
